Location: Miles
(41.4492°N, 81.6087°W)
Time: 14:01:17
(UTC+00:00)

A-11 Canister half - Pass Details

Date: 15 September 2024
Orbit: 1515 x 1684 km, 47.2° (Epoch: 11 October)

Event Time Altitude Azimuth Distance (km) Brightness Sun altitude
Rises 00:40:41 0° 243° (WSW) 4,731 12.4 -12.7°
Reaches altitude 10° 00:43:46 10° 244° (WSW) 3,729 11.7 -13.2°
Maximum altitude 00:53:12 87° 333° (NNW) 1,529 9.0 -14.9°
Drops below altitude 10° 01:02:29 10° 65° (ENE) 3,677 10.6 -16.6°
Enters shadow 01:03:13 - 65° (ENE) 3,912 10.7 -16.7°
